Time,TemperatureF,DewpointF,PressureIn,WindDirection,WindDirectionDegrees,WindSpeedMPH,WindSpeedGustMPH,Humidity,HourlyPrecipIn,Conditions,Clouds,dailyrainin,SoftwareType,DateUTC
2013-03-05 00:02:00,18.0,15.0,30.06,SSE,160,0.0,0.0,86,0.00,,,0.04,,2013-03-05 05:02:00,
2013-03-05 00:12:00,18.0,15.0,30.06,SSE,160,0.0,0.0,86,0.00,,,0.04,,2013-03-05 05:12:00,
2013-03-05 00:22:00,18.0,15.0,30.07,SSE,160,0.0,0.0,87,0.00,,,0.04,,2013-03-05 05:22:00,
2013-03-05 00:32:00,17.0,14.0,30.07,SSE,160,0.0,0.0,87,0.00,,,0.04,,2013-03-05 05:32:00,
2013-03-05 00:42:00,17.0,14.0,30.07,SSE,160,0.0,0.0,87,0.00,,,0.04,,2013-03-05 05:42:00,
2013-03-05 00:52:00,17.0,14.0,30.08,SSE,160,0.0,0.0,87,0.00,,,0.04,,2013-03-05 05:52:00,
2013-03-05 01:01:00,17.0,14.0,30.08,SSE,160,0.0,0.0,87,0.00,,,0.04,,2013-03-05 06:01:00,
2013-03-05 01:11:00,17.0,14.0,30.08,SSE,160,0.0,0.0,87,0.00,,,0.04,,2013-03-05 06:11:00,
2013-03-05 01:22:00,17.0,14.0,30.08,SSE,160,0.0,0.0,88,0.00,,,0.04,,2013-03-05 06:22:00,
2013-03-05 01:32:00,16.0,13.0,30.08,SSE,160,0.0,0.0,88,0.00,,,0.04,,2013-03-05 06:32:00,
2013-03-05 01:42:00,16.0,13.0,30.08,SSE,160,0.0,0.0,88,0.00,,,0.04,,2013-03-05 06:42:00,
2013-03-05 01:52:00,16.0,13.0,30.08,SSE,160,0.0,0.0,88,0.00,,,0.04,,2013-03-05 06:52:00,
2013-03-05 02:01:00,16.0,13.0,30.08,SSE,160,0.0,0.0,88,0.00,,,0.04,,2013-03-05 07:01:00,
2013-03-05 02:11:00,16.0,13.0,30.08,SSE,160,0.0,0.0,88,0.00,,,0.04,,2013-03-05 07:11:00,
2013-03-05 02:22:00,16.0,13.0,30.08,SSE,160,0.0,0.0,88,0.00,,,0.04,,2013-03-05 07:22:00,
2013-03-05 02:31:00,15.0,12.0,30.08,SSE,160,0.0,0.0,89,0.00,,,0.04,,2013-03-05 07:31:00,
2013-03-05 02:42:00,15.0,12.0,30.08,SSE,160,0.0,0.0,89,0.00,,,0.04,,2013-03-05 07:42:00,
2013-03-05 02:51:00,15.0,12.0,30.07,SSE,160,0.0,0.0,89,0.00,,,0.04,,2013-03-05 07:51:00,
2013-03-05 03:02:00,15.0,12.0,30.07,SSE,160,0.0,0.0,89,0.00,,,0.04,,2013-03-05 08:02:00,
2013-03-05 03:11:00,15.0,12.0,30.07,SSE,160,0.0,0.0,89,0.00,,,0.04,,2013-03-05 08:11:00,
2013-03-05 03:21:00,15.0,12.0,30.06,SSE,160,0.0,0.0,89,0.00,,,0.04,,2013-03-05 08:21:00,
2013-03-05 03:31:00,15.0,12.0,30.06,SSE,160,0.0,0.0,89,0.00,,,0.04,,2013-03-05 08:31:00,
2013-03-05 03:41:00,15.0,12.0,30.06,SSE,160,0.0,0.0,89,0.00,,,0.04,,2013-03-05 08:41:00,
2013-03-05 03:52:00,15.0,12.0,30.05,SSE,160,0.0,0.0,89,0.00,,,0.04,,2013-03-05 08:52:00,
2013-03-05 04:01:00,15.0,12.0,30.05,SSE,160,0.0,0.0,89,0.00,,,0.04,,2013-03-05 09:01:00,
2013-03-05 04:11:00,15.0,12.0,30.05,SSE,160,0.0,0.0,89,0.00,,,0.04,,2013-03-05 09:11:00,
2013-03-05 04:21:00,14.0,11.0,30.04,SSE,160,0.0,0.0,89,0.00,,,0.04,,2013-03-05 09:21:00,
2013-03-05 04:32:00,14.0,11.0,30.04,SSE,160,0.0,0.0,89,0.00,,,0.04,,2013-03-05 09:32:00,
2013-03-05 04:43:00,14.0,11.0,30.04,SSE,160,0.0,0.0,89,0.00,,,0.04,,2013-03-05 09:43:00,
2013-03-05 04:52:00,14.0,12.0,30.04,SSE,160,0.0,0.0,90,0.00,,,0.04,,2013-03-05 09:52:00,
2013-03-05 05:01:00,14.0,12.0,30.03,SSE,160,0.0,0.0,90,0.00,,,0.04,,2013-03-05 10:01:00,
2013-03-05 05:11:00,14.0,12.0,30.03,SSE,160,0.0,0.0,90,0.00,,,0.04,,2013-03-05 10:11:00,
2013-03-05 05:22:00,14.0,12.0,30.03,SSE,160,0.0,0.0,90,0.00,,,0.04,,2013-03-05 10:22:00,
2013-03-05 05:32:00,14.0,11.0,30.03,SSE,160,0.0,0.0,89,0.00,,,0.04,,2013-03-05 10:32:00,
2013-03-05 05:42:00,14.0,11.0,30.03,SSE,160,0.0,0.0,89,0.00,,,0.04,,2013-03-05 10:42:00,
2013-03-05 05:52:00,14.0,12.0,30.02,SSE,160,0.0,0.0,90,0.00,,,0.04,,2013-03-05 10:52:00,
2013-03-05 06:01:00,14.0,11.0,30.03,SSE,160,0.0,0.0,89,0.00,,,0.04,,2013-03-05 11:01:00,
2013-03-05 06:11:00,14.0,11.0,30.03,SSE,160,0.0,0.0,89,0.00,,,0.04,,2013-03-05 11:11:00,
2013-03-05 06:22:00,14.0,12.0,30.02,SSE,160,0.0,0.0,90,0.00,,,0.04,,2013-03-05 11:22:00,
2013-03-05 06:32:00,15.0,13.0,30.02,SSE,160,0.0,0.0,90,0.00,,,0.04,,2013-03-05 11:32:00,
2013-03-05 06:42:00,15.0,13.0,30.02,SSE,160,0.0,0.0,90,0.00,,,0.04,,2013-03-05 11:42:00,
2013-03-05 06:52:00,15.0,13.0,30.02,SSE,160,0.0,0.0,90,0.00,,,0.04,,2013-03-05 11:52:00,
2013-03-05 07:02:00,15.0,13.0,30.02,SSE,160,0.0,0.0,90,0.00,,,0.04,,2013-03-05 12:02:00,
2013-03-05 07:12:00,15.0,13.0,30.02,SSE,160,0.0,0.0,90,0.00,,,0.04,,2013-03-05 12:12:00,
2013-03-05 07:22:00,15.0,13.0,30.01,SSE,160,0.0,0.0,90,0.00,,,0.04,,2013-03-05 12:22:00,
2013-03-05 07:32:00,15.0,13.0,30.01,SSE,160,0.0,0.0,90,0.00,,,0.04,,2013-03-05 12:32:00,
2013-03-05 07:42:00,15.0,13.0,30.01,SSE,160,0.0,0.0,90,0.00,,,0.04,,2013-03-05 12:42:00,
2013-03-05 07:53:00,15.0,13.0,30.01,SSE,160,0.0,0.0,90,0.00,,,0.04,,2013-03-05 12:53:00,
2013-03-05 08:02:00,15.0,13.0,30.01,SSE,160,0.0,0.0,90,0.00,,,0.04,,2013-03-05 13:02:00,
2013-03-05 08:12:00,15.0,13.0,30.01,SSE,160,0.0,0.0,90,0.00,,,0.04,,2013-03-05 13:12:00,
2013-03-05 08:22:00,16.0,14.0,30.01,SSE,160,0.0,0.0,90,0.00,,,0.04,,2013-03-05 13:22:00,
2013-03-05 08:32:00,18.0,16.0,30.01,SSE,159,0.0,1.0,91,0.00,,,0.04,,2013-03-05 13:32:00,
2013-03-05 08:42:00,18.0,16.0,30.01,SSE,159,0.0,1.0,91,0.00,,,0.04,,2013-03-05 13:42:00,
2013-03-05 08:52:00,20.0,18.0,30.01,NE,48,0.0,3.0,91,0.00,,,0.04,,2013-03-05 13:52:00,
2013-03-05 09:02:00,22.0,20.0,30.01,ENE,60,0.0,3.0,91,0.00,,,0.04,,2013-03-05 14:02:00,
2013-03-05 09:11:00,22.0,20.0,30.01,ENE,60,0.0,3.0,91,0.00,,,0.04,,2013-03-05 14:11:00,
2013-03-05 09:22:00,24.0,21.0,30.01,NE,40,0.0,3.0,89,0.00,,,0.04,,2013-03-05 14:22:00,
2013-03-05 09:32:00,25.0,21.0,30.00,NE,49,0.0,3.0,86,0.00,,,0.04,,2013-03-05 14:32:00,
2013-03-05 09:42:00,25.0,21.0,30.00,NE,49,0.0,3.0,86,0.00,,,0.04,,2013-03-05 14:42:00,
2013-03-05 09:52:00,26.0,21.0,30.00,SSE,159,0.0,4.0,82,0.00,,,0.04,,2013-03-05 14:52:00,
2013-03-05 10:02:00,27.0,21.0,29.99,East,88,0.0,5.0,77,0.00,,,0.04,,2013-03-05 15:02:00,
2013-03-05 10:11:00,27.0,21.0,29.99,East,88,0.0,5.0,77,0.00,,,0.04,,2013-03-05 15:11:00,
2013-03-05 10:21:00,28.0,22.0,29.99,North,0,0.0,4.0,77,0.00,,,0.04,,2013-03-05 15:21:00,
2013-03-05 10:32:00,29.0,22.0,29.98,East,84,6.0,9.0,75,0.00,,,0.04,,2013-03-05 15:32:00,
2013-03-05 10:42:00,29.0,22.0,29.98,East,84,6.0,9.0,75,0.00,,,0.04,,2013-03-05 15:42:00,
2013-03-05 10:52:00,29.0,22.0,29.98,NNE,32,1.0,5.0,74,0.00,,,0.04,,2013-03-05 15:52:00,
2013-03-05 11:01:00,30.0,22.0,29.98,ENE,68,0.0,5.0,73,0.00,,,0.04,,2013-03-05 16:01:00,
2013-03-05 11:11:00,30.0,22.0,29.98,ENE,68,0.0,5.0,73,0.00,,,0.04,,2013-03-05 16:11:00,
2013-03-05 11:22:00,30.0,22.0,29.98,ESE,119,0.0,6.0,73,0.00,,,0.04,,2013-03-05 16:22:00,
2013-03-05 11:32:00,31.0,23.0,29.97,SE,140,0.0,6.0,73,0.00,,,0.04,,2013-03-05 16:32:00,
2013-03-05 11:42:00,31.0,23.0,29.97,SE,140,0.0,6.0,73,0.00,,,0.04,,2013-03-05 16:42:00,
2013-03-05 11:52:00,31.0,23.0,29.96,NNE,25,2.0,7.0,73,0.00,,,0.04,,2013-03-05 16:52:00,
2013-03-05 12:01:00,32.0,24.0,29.96,ENE,74,0.0,13.0,72,0.00,,,0.04,,2013-03-05 17:01:00,
2013-03-05 12:11:00,32.0,24.0,29.96,ENE,74,0.0,13.0,72,0.00,,,0.04,,2013-03-05 17:11:00,
2013-03-05 12:21:00,32.0,23.0,29.96,NNE,20,0.0,11.0,70,0.00,,,0.03,,2013-03-05 17:21:00,
2013-03-05 12:32:00,33.0,25.0,29.96,ENE,57,3.0,6.0,71,0.00,,,0.03,,2013-03-05 17:32:00,
2013-03-05 12:42:00,33.0,25.0,29.96,ENE,57,3.0,6.0,71,0.00,,,0.03,,2013-03-05 17:42:00,
2013-03-05 12:52:00,33.0,24.0,29.95,NE,51,4.0,9.0,70,0.00,,,0.03,,2013-03-05 17:52:00,
2013-03-05 13:02:00,32.0,24.0,29.95,NNE,24,0.0,9.0,73,0.00,,,0.03,,2013-03-05 18:02:00,
2013-03-05 13:11:00,32.0,24.0,29.95,NNE,24,0.0,9.0,73,0.00,,,0.03,,2013-03-05 18:11:00,
2013-03-05 13:22:00,32.0,25.0,29.95,ENE,77,0.0,9.0,74,0.00,,,0.02,,2013-03-05 18:22:00,
2013-03-05 13:32:00,32.0,25.0,29.93,ENE,66,0.0,7.0,74,0.00,,,0.02,,2013-03-05 18:32:00,
2013-03-05 13:42:00,32.0,25.0,29.93,ENE,66,0.0,7.0,74,0.00,,,0.02,,2013-03-05 18:42:00,
2013-03-05 13:53:00,32.0,25.0,29.93,East,88,2.0,6.0,74,0.00,,,0.02,,2013-03-05 18:53:00,
2013-03-05 14:01:00,32.0,25.0,29.92,ENE,67,5.0,5.0,74,0.01,,,0.03,,2013-03-05 19:01:00,
2013-03-05 14:11:00,32.0,25.0,29.92,ENE,67,5.0,5.0,74,0.01,,,0.03,,2013-03-05 19:11:00,
2013-03-05 14:21:00,33.0,26.0,29.91,East,81,0.0,7.0,74,0.01,,,0.03,,2013-03-05 19:21:00,
2013-03-05 14:32:00,33.0,26.0,29.91,NNE,30,0.0,10.0,74,0.01,,,0.03,,2013-03-05 19:32:00,
2013-03-05 14:42:00,33.0,26.0,29.91,NNE,30,0.0,10.0,74,0.01,,,0.03,,2013-03-05 19:42:00,
2013-03-05 14:52:00,33.0,26.0,29.90,East,97,5.0,5.0,76,0.01,,,0.03,,2013-03-05 19:52:00,
2013-03-05 15:01:00,32.0,26.0,29.89,East,87,0.0,12.0,78,0.00,,,0.03,,2013-03-05 20:01:00,
2013-03-05 15:11:00,32.0,26.0,29.88,NE,41,1.0,11.0,78,0.00,,,0.03,,2013-03-05 20:11:00,
2013-03-05 15:22:00,32.0,26.0,29.88,NE,41,1.0,11.0,78,0.00,,,0.03,,2013-03-05 20:22:00,
2013-03-05 15:32:00,32.0,26.0,29.88,NNE,28,10.0,10.0,78,0.00,,,0.03,,2013-03-05 20:32:00,
2013-03-05 15:42:00,32.0,26.0,29.88,NNE,28,10.0,10.0,78,0.00,,,0.03,,2013-03-05 20:42:00,
2013-03-05 15:52:00,32.0,26.0,29.88,NNE,30,6.0,6.0,78,0.00,,,0.02,,2013-03-05 20:52:00,
2013-03-05 16:02:00,31.0,26.0,29.88,NE,36,7.0,9.0,80,0.00,,,0.02,,2013-03-05 21:02:00,
2013-03-05 16:11:00,31.0,26.0,29.88,NE,36,7.0,9.0,80,0.00,,,0.02,,2013-03-05 21:11:00,
2013-03-05 16:22:00,31.0,26.0,29.88,NNE,28,4.0,11.0,80,0.00,,,0.02,,2013-03-05 21:22:00,
2013-03-05 16:32:00,30.0,25.0,29.87,NNE,25,3.0,11.0,82,0.00,,,0.02,,2013-03-05 21:32:00,
2013-03-05 16:42:00,30.0,25.0,29.87,NNE,25,3.0,11.0,82,0.00,,,0.02,,2013-03-05 21:42:00,
2013-03-05 16:52:00,30.0,25.0,29.88,North,11,4.0,11.0,82,0.00,,,0.02,,2013-03-05 21:52:00,
2013-03-05 17:01:00,29.0,24.0,29.87,East,80,3.0,14.0,82,0.00,,,0.02,,2013-03-05 22:01:00,
2013-03-05 17:11:00,29.0,24.0,29.87,East,80,3.0,14.0,82,0.00,,,0.02,,2013-03-05 22:11:00,
2013-03-05 17:22:00,29.0,24.0,29.87,NE,41,0.0,13.0,82,0.00,,,0.02,,2013-03-05 22:22:00,
2013-03-05 17:32:00,29.0,24.0,29.86,NE,38,0.0,11.0,82,0.00,,,0.01,,2013-03-05 22:32:00,
2013-03-05 17:42:00,29.0,24.0,29.86,NE,38,0.0,11.0,82,0.00,,,0.01,,2013-03-05 22:42:00,
2013-03-05 17:52:00,29.0,25.0,29.86,NE,42,10.0,12.0,83,0.00,,,0.01,,2013-03-05 22:52:00,
2013-03-05 18:01:00,28.0,24.0,29.86,NNE,25,2.0,17.0,84,0.00,,,0.01,,2013-03-05 23:01:00,
2013-03-05 18:11:00,28.0,24.0,29.86,NNE,25,2.0,17.0,84,0.00,,,0.01,,2013-03-05 23:11:00,
2013-03-05 18:21:00,28.0,24.0,29.86,NNE,25,4.0,8.0,85,0.00,,,0.01,,2013-03-05 23:21:00,
2013-03-05 18:32:00,28.0,24.0,29.87,NNE,19,18.0,18.0,86,0.00,,,0.01,,2013-03-05 23:32:00,
2013-03-05 18:42:00,28.0,24.0,29.87,NNE,19,18.0,18.0,86,0.00,,,0.01,,2013-03-05 23:42:00,
2013-03-05 18:53:00,28.0,24.0,29.87,NE,54,1.0,16.0,86,0.00,,,0.01,,2013-03-05 23:53:00,
2013-03-05 19:01:00,28.0,25.0,29.88,NE,53,3.0,9.0,87,0.00,,,0.01,,2013-03-06 00:01:00,
2013-03-05 19:11:00,28.0,25.0,29.88,NE,53,3.0,9.0,87,0.00,,,0.01,,2013-03-06 00:11:00,
2013-03-05 19:21:00,28.0,25.0,29.89,ENE,63,0.0,7.0,87,0.00,,,0.01,,2013-03-06 00:21:00,
2013-03-05 19:32:00,28.0,25.0,29.90,NE,36,2.0,13.0,87,0.00,,,0.01,,2013-03-06 00:32:00,
2013-03-05 19:42:00,28.0,25.0,29.90,NE,36,2.0,13.0,87,0.00,,,0.01,,2013-03-06 00:42:00,
2013-03-05 19:52:00,28.0,25.0,29.90,ENE,70,6.0,12.0,87,0.00,,,0.01,,2013-03-06 00:52:00,
2013-03-05 20:02:00,27.0,24.0,29.90,NE,34,0.0,10.0,87,0.00,,,0.01,,2013-03-06 01:02:00,
2013-03-05 20:11:00,27.0,24.0,29.90,NE,34,0.0,10.0,87,0.00,,,0.01,,2013-03-06 01:11:00,
2013-03-05 20:21:00,28.0,25.0,29.89,NNE,13,3.0,17.0,88,0.00,,,0.01,,2013-03-06 01:21:00,
2013-03-05 20:32:00,28.0,25.0,29.89,NNE,26,2.0,17.0,88,0.00,,,0.01,,2013-03-06 01:32:00,
2013-03-05 20:42:00,28.0,25.0,29.89,NNE,26,2.0,17.0,88,0.00,,,0.01,,2013-03-06 01:42:00,
2013-03-05 20:52:00,28.0,25.0,29.89,NNE,28,3.0,7.0,88,0.00,,,0.01,,2013-03-06 01:52:00,
2013-03-05 21:01:00,28.0,25.0,29.90,NNE,23,2.0,7.0,88,0.00,,,0.01,,2013-03-06 02:01:00,
2013-03-05 21:11:00,28.0,25.0,29.90,NNE,23,2.0,7.0,88,0.00,,,0.01,,2013-03-06 02:11:00,
2013-03-05 21:22:00,28.0,25.0,29.90,NE,46,0.0,9.0,88,0.00,,,0.01,,2013-03-06 02:22:00,
2013-03-05 21:32:00,28.0,25.0,29.89,NNE,15,0.0,11.0,88,0.00,,,0.01,,2013-03-06 02:32:00,
2013-03-05 21:42:00,28.0,25.0,29.89,NNE,15,0.0,11.0,88,0.00,,,0.01,,2013-03-06 02:42:00,
2013-03-05 21:52:00,29.0,26.0,29.90,NNE,21,3.0,10.0,88,0.00,,,0.01,,2013-03-06 02:52:00,
2013-03-05 22:02:00,29.0,26.0,29.89,NNE,28,0.0,10.0,88,0.00,,,0.01,,2013-03-06 03:02:00,
2013-03-05 22:11:00,29.0,26.0,29.89,NNE,28,0.0,10.0,88,0.00,,,0.01,,2013-03-06 03:11:00,
2013-03-05 22:22:00,29.0,26.0,29.89,NNE,29,0.0,10.0,88,0.00,,,0.01,,2013-03-06 03:22:00,
2013-03-05 22:32:00,29.0,26.0,29.89,NNE,23,4.0,7.0,88,0.00,,,0.01,,2013-03-06 03:32:00,
2013-03-05 22:42:00,29.0,26.0,29.89,NNE,23,4.0,7.0,88,0.00,,,0.01,,2013-03-06 03:42:00,
2013-03-05 22:53:00,30.0,27.0,29.89,NNE,21,0.0,7.0,88,0.00,,,0.01,,2013-03-06 03:53:00,
2013-03-05 23:02:00,30.0,27.0,29.89,NE,48,0.0,13.0,88,0.00,,,0.01,,2013-03-06 04:02:00,
2013-03-05 23:11:00,30.0,27.0,29.89,NE,48,0.0,13.0,88,0.00,,,0.01,,2013-03-06 04:11:00,
2013-03-05 23:22:00,30.0,27.0,29.89,North,5,3.0,6.0,87,0.00,,,0.01,,2013-03-06 04:22:00,
2013-03-05 23:32:00,30.0,27.0,29.89,NNE,27,0.0,5.0,87,0.00,,,0.01,,2013-03-06 04:32:00,
2013-03-05 23:42:00,30.0,27.0,29.89,NNE,27,0.0,5.0,87,0.00,,,0.01,,2013-03-06 04:42:00,
2013-03-05 23:52:00,30.0,27.0,29.89,NNW,346,0.0,4.0,87,0.00,,,0.01,,2013-03-06 04:52:00,